Hourly Data Report for May 30, 2012

All times are specified in Local Standard Time (LST). Add 1 hour to adjust for Daylight Saving Time where and when it is observed.

YARMOUTH A
NOVA SCOTIA

43°49'37.000" N
66°05'17.000" W
42.90 m
8206495
71603
YQI

Download Data

Hourly Data (May 2012)
Hourly Data Report for May 30, 2012
Temp Definition
°C
Dew Point Temp Definition
°C
Rel Hum Definition
%
Wind Dir Definition
10's deg

Wind Spd Definition
km/h
Visibility Definition
km
Stn Press Definition
kPa
Hmdx Definition


Wind Chill Definition


Weather Definition


TIME
00:00 Legend Double Dagger 10.1 10.0 99 13 26 4.0 100.62     Drizzle,Fog
01:00 Legend Double Dagger 10.4 10.4 100 11 22 3.2 100.56     Drizzle,Fog
02:00 Legend Double Dagger 10.5 10.5 100 11 18 3.2 100.46     Drizzle,Fog
03:00 Legend Double Dagger 10.9 10.9 100 12 23 2.4 100.27     Drizzle,Fog
04:00 Legend Double Dagger 11.5 11.7 101 13 23 2.0 100.16     Drizzle,Fog
05:00 Legend Double Dagger 11.9 12.1 101 14 16 1.2 100.21     Drizzle,Fog
06:00 Legend Double Dagger 12.5 12.7 101 14 12 0.8 100.20     Drizzle,Fog
07:00 Legend Double Dagger 12.8 13.0 101 17 14 0.8 100.17     Drizzle,Fog
08:00 Legend Double Dagger 13.8 14.0 101 19 14 0.6 100.14     Drizzle,Fog
09:00 Legend Double Dagger 13.4 13.6 101 20 14 0.4 100.11     Fog
10:00 Legend Double Dagger 13.3 13.5 101 23 12 0.4 100.11     Fog
11:00 Legend Double Dagger 13.3 13.3 100 24 11 4.0 100.09     Fog
12:00 Legend Double Dagger 12.9 12.8 99 27 12 4.0 100.11     Fog
13:00 Legend Double Dagger 15.0 14.1 94 26 8 8.1 100.07     Fog
14:00 Legend Double Dagger 13.2 12.7 97 26 12 1.6 100.07     Fog
15:00 Legend Double Dagger 12.5 12.5 100 26 10 0.4 100.07     Fog
16:00 Legend Double Dagger 12.5 12.5 100 28 9 0.4 100.07     Rain Showers,Fog
17:00 Legend Double Dagger 11.4 11.6 101 30 14 0.6 100.14     Fog
18:00 Legend Double Dagger 11.6 11.8 101 31 7 2.4 100.13     Fog
19:00 Legend Double Dagger 11.0 11.2 101 30 6 1.6 100.17     Fog
20:00 Legend Double Dagger 11.4 11.6 101 31 6 4.8 100.19     Fog
21:00 Legend Double Dagger 10.3 10.5 101 34 5 2.4 100.24     Fog
22:00 Legend Double Dagger 10.5 10.7 101   0 1.6 100.24     Fog
23:00 Legend Double Dagger 9.5 9.7 101 32 9 1.6 100.24     Fog

Notes on Data Quality.

Legend

  • E = Estimated
  • M = Missing
  • NA = Not Available
  • ‡ = Partner data that is not subject to review by the National Climate Archives
Date modified: